Location: Buckenweiler
(49.0667°N, 10.2500°E)
Time: 10:12:47
(UTC+00:00)

COSMO-SKYMED 1 - Pass Details

Date: 18 January 2026
Orbit: 577 x 579 km, 97.9° (Epoch: 19 February)

Event Time Altitude Azimuth Distance (km) Brightness Sun altitude
Rises 05:58:01 0° 209° (SSW) 2,789 5.8 -10.9°
Reaches altitude 10° 06:00:54 10° 231° (SW) 1,896 4.7 -10.4°
Maximum altitude 06:03:27 16° 270° (W) 1,556 4.0 -10.0°
Enters shadow 06:05:05 13° 297° (WNW) 1,709 4.2 -9.8°
